Regional Weather Roundup
Issued by NWS

Home | Current Version | Previous Version | Text Only | Print | Product List | Glossary Off
Versions: 1 2 3 4 5 6 7 8 9 10 11 12 13 14 15 16 17 18 19 20 21 22 23 24 25 26 27

000
ASUS45 KBOU 152207
RWRCO

WEATHER ROUNDUP FOR COLORADO
NATIONAL WEATHER SERVICE DENVER/BOULDER CO
400 PM MDT TUE AUG 15 2017

NOTE: "FAIR" INDICATES FEW OR NO CLOUDS BELOW 12000 FEET WITH NO
SIGNIFICANT WEATHER AND/OR OBSTRUCTIONS TO VISIBILITY.

COZ001>005-013-030-031-152300-
...NORTHWEST COLORADO...

CITY           SKY/WX    TMP DP  RH WIND       PRES   REMARKS
CRAIG          CLOUDY    70  38  31 W20G30    30.04R
HAYDEN         TSTM      60  49  66 W6G18     30.08R
MEEKER         FAIR      71  43  36 SW7       30.04R
RABBIT EARS PA FAIR      55  41  58 W7        30.28S
STEAMBOAT SPGS PTSUNNY   66  42  40 W13       30.05R
WALDEN         FAIR      66  39  37 SW10      30.11S
$$

COZ006>008-011-152300-
...WEST CENTRAL VALLEYS...

CITY           SKY/WX    TMP DP  RH WIND       PRES   REMARKS
GRAND JUNCTION PTSUNNY   81  34  18 W14       29.93S
MONTROSE       FAIR      77  31  18 W13G20    30.02F
EAGLE          FAIR      76  29  17 SW22G31   30.04R
RIFLE          FAIR      81  27  14 S17G29    29.95F
DELTA          FAIR      84  26  12 SW16G25   29.98
NUCLA          FAIR      77  23  13 W16G22    30.08S
$$

COZ017>023-064>068-152300-
...SOUTHWEST COLORADO...

CITY           SKY/WX    TMP DP  RH WIND       PRES   REMARKS
DURANGO        FAIR      74  27  17 W12       30.10S
CORTEZ         FAIR      76  29  17 SW9       30.06F
PAGOSA SPRINGS FAIR      73  29  19 W14G24    30.15S
TELLURIDE      NOT AVBL
WOLF CREEK PAS FAIR      46  32  57 S5G17     30.47S
$$

COZ009-010-012-014-032>034-037-058>063-152300-
...CENTRAL COLORADO...

CITY           SKY/WX    TMP DP  RH WIND       PRES   REMARKS
ASPEN          FAIR      72  29  20 N12       30.09F
BUENA VISTA    FAIR      72  21  15 W9        30.10F
COPPER MTN     FAIR      55  30  38 S7        30.40S
BERTHOUD PASS  FAIR      46  43  87 E5        30.41S
COTTONWOOD PAS FAIR      66   9  10 W7G18     30.24F
GUNNISON       FAIR      68  30  24 W9        30.13S
KREMMLING      FAIR      81  32  17 W15G21    30.05F
LEADVILLE      PTSUNNY   60  27  28 N10       30.22F
MONARCH PASS   PTSUNNY   50  30  46 SW8G17    30.52F
SALIDA         CLOUDY    71  33  25 SW16G25   30.17R
SUNLIGHT       FAIR      55  32  41 SW12G21   30.35R
WILKERSON PASS FAIR      55  28  35 SW9G17    30.37S
$$

COZ069>075-152300-
...SAN LUIS VALLEY/SANGRE DE CRISTO MOUNTAINS...

CITY           SKY/WX    TMP DP  RH WIND       PRES   REMARKS
ALAMOSA        FAIR      76  30  18 SW20G29   30.09F
DEL NORTE      FAIR      68  34  28 SW16G22   30.14S
LA VETA PASS   NOT AVBL
SAGUACHE       PTSUNNY   72  34  25 N6        30.11S
$$

COZ035-036-038>040-152300-
...NORTHERN COLORADO FRONT RANGE...

CITY           SKY/WX    TMP DP  RH WIND       PRES   REMARKS
DENVER INTL AP PTSUNNY   81  51  35 NW18      29.88F
DMNS CITY PARK   N/A     78  41  26 N9G16     29.87F
AURORA         PTSUNNY   80  54  40 NW20G26   29.90F
FRONT RANGE AP PTSUNNY   82  48  30 N5        29.89F
ERIE MUNI ARPT PTSUNNY   80  36  21 S14G22    29.91F
BOULDER MUN AP FAIR      82  45  26 SE9       29.88F
CENTENNIAL     PTSUNNY   77  53  43 N18       29.91F
BROOMFIELD     LGT RAIN  73  43  33 E12G30    29.92F
FORT COLLINS   FAIR      79  59  50 W8        29.88F
LONGMONT       FAIR      81  54  40 NW8       29.88F
$$

COZ041-046-047-076>085-087-088-152300-
...PIKES PEAK/PALMER DIVIDE AND SOUTHERN FOOTHILLS...

CITY           SKY/WX    TMP DP  RH WIND       PRES   REMARKS
COLO. SPRINGS  PTSUNNY   84  41  21 SE9       29.93F
A. F. ACADEMY  TSTM      76  45  33 NW13      29.96S
SCHRIEVER AFB  FAIR      81  38  21 SE9G18    29.93F
CHEYENNE MTN   PTSUNNY   75  41  29 W5        29.94F
ELLICOTT       FAIR       1  32 100 S7        29.92F THUNDER WCI -12
FALCON         FAIR      79  39  23 SE10G17   30.00S
FORT CARSON    FAIR      84  41  21 SW6       29.89F HAZE
LIMON          TSTM      73  65  75 SE15      29.90S
MONUMENT HILL  PTSUNNY   63  50  63 E16       30.02F THUNDER
CANON CITY     SUNNY     90  45  20 W17G23    29.86F
WALSENBURG     FAIR      86  32  14 W18       29.93S
TRINIDAD       FAIR      84  45  25 E7        29.91F
$$

COZ042>045-048>051-090-091-152300-
...NORTHEAST COLORADO...

CITY           SKY/WX    TMP DP  RH WIND       PRES   REMARKS
GREELEY ARPT   FAIR      86  57  37 SE7       29.85F
AKRON          FAIR      81  59  47 NE10      29.85F
BURLINGTON     FAIR      86  64  47 SE20      29.83F
WRAY           NOT AVBL
YUMA           FAIR      79  45  29 E7        29.82F
STERLING       FAIR      81  64  57 NE10      29.79F
HOLYOKE        FAIR      88  63  42 S10       29.81F
FORT MORGAN    FAIR      86  54  33 NE9       29.85F
$$

COZ086-089-092>099-152300-
...SOUTHEAST COLORADO...

CITY           SKY/WX    TMP DP  RH WIND       PRES   REMARKS
PUEBLO         FAIR      91  42  18 VRB3      29.80F
LA JUNTA       FAIR      85  60  42 SE9       29.81F
LAMAR          FAIR      88  58  36 S8        29.76F
SPRINGFIELD      N/A     86  61  42 SE10      29.83F
$$




USA.gov is the U.S. government's official web portal to all federal, state and local government web resources and services.